This is the latest recevied weather packets stored in our database for station/object LU9FW-5. If no packets are shown the sender has not sent any weather packets the latest 10 day(s).
| Time | Temp. | Humidity | Pressure | Rain* | Wind** | Luminosity | Snow |
|---|---|---|---|---|---|---|---|
| 1777472895 | 18.89° C | 66% | 1008.2 hPa | 0 mm | - | - | - |
| 1777472817 | 18.89° C | 65% | 1008.1 hPa | 0 mm | - | - | - |
| 1777472745 | 18.89° C | 67% | 1008.3 hPa | 0 mm | - | - | - |
| 1777472679 | 18.89° C | 66% | 1008.1 hPa | 0 mm | - | - | - |
| 1777472616 | 19.44° C | 66% | 1008 hPa | 0 mm | - | - | - |
| 1777472532 | 19.44° C | 66% | 1008.3 hPa | 0 mm | - | - | - |
| 1777472470 | 19.44° C | 64% | 1008.3 hPa | 0 mm | - | - | - |
| 1777472400 | 19.44° C | 67% | 1008.4 hPa | 0 mm | - | - | - |
| 1777472332 | 19.44° C | 66% | 1008.4 hPa | 0 mm | - | - | - |
| 1777472280 | 18.89° C | 65% | 1008.2 hPa | 0 mm | - | - | - |
| 1777472251 | 19.44° C | 67% | 1008.1 hPa | 0 mm | - | - | - |
| 1777472119 | 19.44° C | 66% | 1008.3 hPa | 0 mm | - | - | - |
| 1777472048 | 19.44° C | 65% | 1008.2 hPa | 0 mm | - | - | - |
| 1777471977 | 18.89° C | 67% | 1008.2 hPa | 0 mm | - | - | - |
| 1777471904 | 18.89° C | 68% | 1008.2 hPa | 0 mm | - | - | - |
| 1777471834 | 18.33° C | 70% | 1008.1 hPa | 0 mm | - | - | - |
| 1777471764 | 17.78° C | 70% | 1008.1 hPa | 0 mm | - | - | - |
| 1777471686 | 17.78° C | 69% | 1008 hPa | 0 mm | - | - | - |
| 1777471624 | 17.78° C | 70% | 1008.1 hPa | 0 mm | - | - | - |
| 1777471550 | 17.78° C | 70% | 1008 hPa | 0 mm | - | 1109 W/m² | - |
| 1777471482 | 17.78° C | 69% | 1008.2 hPa | 0 mm | - | 1109 W/m² | - |
| 1777471404 | 17.78° C | 70% | 1008.3 hPa | 0 mm | - | 1109 W/m² | - |
| 1777471336 | 17.78° C | 70% | 1008.3 hPa | 0 mm | - | 1109 W/m² | - |
| 1777471284 | 17.78° C | 70% | 1008.2 hPa | 0 mm | - | 1109 W/m² | - |
| 1777471200 | 17.78° C | 71% | 1008.1 hPa | 0 mm | - | 1109 W/m² | - |
* Rain latest hour (hover to see other rain measurements)
** Current wind speed in m/s (hover to see current wind gust speed)